Location: New Frontier Mobile Home Park
(32.8448°N, 116.9675°W)
Time: 22:31:19
(UTC+00:00)

Cosmos 773 Rocket - Pass Details

Date: 14 July 2020
Orbit: 746 x 776 km, 74.1° (Epoch: 05 August)

Event Time Altitude Azimuth Distance (km) Brightness Sun altitude
Rises 03:17:18 0° 195° (SSW) 3,238 7.1 -4.5°
Reaches altitude 10° 03:19:40 10° 195° (SSW) 2,315 6.4 -4.9°
Maximum altitude 03:24:57 89° 115° (ESE) 780 4.1 -5.9°
Drops below altitude 10° 03:30:15 10° 17° (NNE) 2,323 6.7 -6.9°
Sets 03:32:38 0° 17° (NNE) 3,251 7.4 -7.3°
